Participated 3 times
Between 1979 and 1981
Gerhard Schönbacher, Austria
Tour de France 2026 starts from Edinburgh, Scotland in

Stats and Facts from
Tour de France.

2026   2025   2024   2023  2022  2021  2020  2019   2018  2017   2016   2015  2014  2013   2012   2011  2010   2009   2008   2007   2006   2005   2004   2003   2002   2001   2000   1999   1998   1997  1996   1995   1994   1993   1992  1991   1990   1989   1988   1987   1986   1985   1984   1983  1982  1981   1980   1979  1978  1977   1976  1975  1974  1973   1972   1971   1970  1969   1968   1967   1966   1965  1964  1963   1962   1961   1960   1959   1958   1957  1956   1955   1954   1953   1952  1951  1950  1949   1948  1947  1939   1938   1937   1936   1935   1934   1933  1932   1931   1930  1929   1928   1927   1926  1925  1924  1923   1922   1921   1920   1919  1914   1913   1912   1911   1910  1909   1908   1907   1906  1905  1904   1903 

Tourstats
Sitemap

After stage 21 - 2026:
 16451 starters.
  5513 different riders.
  689 teams.
  2419 stages.
  470 restdays.
  469752.50 km.
  5946 abandoned riders.

Click map for 1990 route.
Facts from Tour de France 1990
  |   Stages.  |   Stage winners.  |   Days in jerseys.  |   Teams.  |   All riders.  |   All riders by age.  |   All riders from.  |  

  |   Rookies.  |   Withdrawls.  |   Average speed.  |   GC.  |   Polka  |   Green  |   White  |   Summits. (In tour)  |   Miscellaneous.  |  

Stage 15 on July 16th. 1990
Pick a stage:  Pro  1  2  3  4  5  6  7  8  9  10  11  12  13  14  15  16  17  18  19  20  21  

After stage 15:    Claudio Chiappucci  
  MillauRevel | Dist: 170.00km. | Winner: Charly Mottet

Podium
4  Côte de Tiergues Thierry Claveyrolatafter22.00 km.

2  Col de Sie Thierry Claveyrolatafter68.50 km.

3  Côte du Mas Bel Air Thierry Claveyrolatafter101.50 km.

3  Côte de Saint Ferréol Charly Mottetafter162.50 km.


Average speed for all riders in stage:  39,336 km./hr.

1
 Charly Mottet  R.M.O.-Mavic-Liberia04h 13' 56"=40,168  km/h

2
 Guiseppe Calcaterra  Chateau d'Ax04h 15' 58"+  00:02:02 =39,849  km/h

3
 Viatcheslav Ekimov  Panasonic-Sportlife04h 15' 58"+  00:02:02 =39,849  km/h

4  Edwig Van Hooydonck  Buckler04h 15' 58"+  00:02:02 =39,849  km/h

5  Thierry Claveyrolat  R.M.O.-Mavic-Liberia04h 15' 58"+  00:02:02 =39,849  km/h

6  Davide Cassani  Ariostea04h 15' 58"+  00:02:02 =39,849  km/h

7  Atle Kvå lsvoll  Z04h 15' 58"+  00:02:02 =39,849  km/h

8  Luc Leblanc  Castorama-Raleigh04h 15' 58"+  00:02:02 =39,849  km/h

9  Óscar Vargas  Ryalcao-Postobon04h 15' 58"+  00:02:02 =39,849  km/h

10  Bruno Cornillet  Z04h 15' 58"+  00:02:02 =39,849  km/h

11  Jean-Claude Colotti  R.M.O.-Mavic-Liberia04h 16' 26"+  00:02:30 =39,776  km/h

12  Peter De Clercq  Lotto-Super Club04h 16' 27"+  00:02:31 =39,774  km/h

13  Massimo Ghirotto  Carrera Jeans-Vagabond04h 16' 27"+  00:02:31 =39,774  km/h

14  Marino Alonso  Banesto04h 16' 27"+  00:02:31 =39,774  km/h

15  Pascal Simon  Castorama-Raleigh04h 16' 27"+  00:02:31 =39,774  km/h

16  Eduardo Chozas  O.N.C.E.04h 16' 27"+  00:02:31 =39,774  km/h

17  Stephen Roche  Histor-Sigma04h 16' 31"+  00:02:35 =39,763  km/h

18  Djamolidine Abduzhaparov  Alfa Lum04h 17' 11"+  00:03:15 =39,660  km/h

19  Stephen Hodge  O.N.C.E.04h 17' 50"+  00:03:54 =39,560  km/h

20  Johan Museeuw  Lotto-Super Club04h 18' 44"+  00:04:48 =39,423  km/h

21  Dimitri Konychev  Alfa Lum04h 18' 44"+  00:04:48 =39,423  km/h

22  Claudio Chiappucci  Carrera Jeans-Vagabond04h 18' 44"+  00:04:48 =39,423  km/h

23  Søren Lilholt  Histor-Sigma04h 18' 44"+  00:04:48 =39,423  km/h

24  Sean Kelly  PDM-Concorde04h 18' 44"+  00:04:48 =39,423  km/h

25  Valerio Piva  Ariostea04h 18' 44"+  00:04:48 =39,423  km/h

26  Pascal Lino  R.M.O.-Mavic-Liberia04h 18' 44"+  00:04:48 =39,423  km/h

27  Rudy Dhaenens  PDM-Concorde04h 18' 44"+  00:04:48 =39,423  km/h

28  Jörg Müller  TVM04h 18' 44"+  00:04:48 =39,423  km/h

29  Pello Ruiz Cabestany  O.N.C.E.04h 18' 44"+  00:04:48 =39,423  km/h

30  Pablo Hernández  Ryalcao-Postobon04h 18' 44"+  00:04:48 =39,423  km/h

31  Gilles Delion  Helvetia-La Suisse04h 18' 44"+  00:04:48 =39,423  km/h

32  Peter Roes  Lotto-Super Club04h 18' 44"+  00:04:48 =39,423  km/h

33  Miguel Indurain  Banesto04h 18' 47"+  00:04:51 =39,415  km/h

34  Paul Haghedooren  Histor-Sigma04h 18' 47"+  00:04:51 =39,415  km/h

35  Reynel Montoya  Ryalcao-Postobon04h 18' 47"+  00:04:51 =39,415  km/h

36  Greg LeMond  Z04h 18' 47"+  00:04:51 =39,415  km/h

37  William Palacio  Ryalcao-Postobon04h 18' 47"+  00:04:51 =39,415  km/h

38  Raúl Alcalá  PDM-Concorde04h 18' 47"+  00:04:51 =39,415  km/h

39  Erik Breukink  PDM-Concorde04h 18' 47"+  00:04:51 =39,415  km/h

40  Vincent Barteau  Castorama-Raleigh04h 18' 47"+  00:04:51 =39,415  km/h

41  Phil Anderson  TVM04h 18' 47"+  00:04:51 =39,415  km/h

42  Guido Bontempi  Carrera Jeans-Vagabond04h 18' 47"+  00:04:51 =39,415  km/h

43  Claude Criquielion  Lotto-Super Club04h 18' 47"+  00:04:51 =39,415  km/h

44  Ronan Pensec  Z04h 18' 47"+  00:04:51 =39,415  km/h

45  Marcello Siboni  Ariostea04h 18' 47"+  00:04:51 =39,415  km/h

46  Hans-Rüdi Märki  Helvetia-La Suisse04h 18' 47"+  00:04:51 =39,415  km/h

47  Gerrit De Vries  Buckler04h 18' 47"+  00:04:51 =39,415  km/h

48  Gianni Bugno  Chateau d'Ax04h 18' 47"+  00:04:51 =39,415  km/h

49  Bjarne Riis  Castorama-Raleigh04h 18' 47"+  00:04:51 =39,415  km/h

50  Herminio Diaz Zabala  O.N.C.E.04h 18' 47"+  00:04:51 =39,415  km/h

51  Pedro Delgado  Banesto04h 18' 47"+  00:04:51 =39,415  km/h

52  Marino Lejarreta  O.N.C.E.04h 18' 47"+  00:04:51 =39,415  km/h

53  Wilfried Peeters  Histor-Sigma04h 18' 47"+  00:04:51 =39,415  km/h

54  Andy Hampsten  7 Eleven-Hoonved04h 18' 47"+  00:04:51 =39,415  km/h

55  Vicente Ridaura  Seur04h 18' 47"+  00:04:51 =39,415  km/h

56  Thierry Laurent  R.M.O.-Mavic-Liberia04h 18' 47"+  00:04:51 =39,415  km/h

57  Uwe Raab  PDM-Concorde04h 18' 47"+  00:04:51 =39,415  km/h

58  Fabrice Philipot  Castorama-Raleigh04h 18' 47"+  00:04:51 =39,415  km/h

59  Brian Holm  Histor-Sigma04h 18' 47"+  00:04:51 =39,415  km/h

60  William Pulido  Ryalcao-Postobon04h 18' 47"+  00:04:51 =39,415  km/h

61  Alessandro Giannelli  Carrera Jeans-Vagabond04h 18' 47"+  00:04:51 =39,415  km/h

62  Dag Otto Lauritzen  7 Eleven-Hoonved04h 18' 47"+  00:04:51 =39,415  km/h

63  Éric Boyer  Z04h 18' 47"+  00:04:51 =39,415  km/h

64  Miguel Angel Martinez  O.N.C.E.04h 18' 47"+  00:04:51 =39,415  km/h

65  Mario Kummer  Chateau d'Ax04h 18' 47"+  00:04:51 =39,415  km/h

66  Johan Bruyneel  Lotto-Super Club04h 18' 47"+  00:04:51 =39,415  km/h

67  Alexandre Trubine  Alfa Lum04h 18' 47"+  00:04:51 =39,415  km/h

68  Alberto Elli  Ariostea04h 18' 47"+  00:04:51 =39,415  km/h

69  José Urea  Seur04h 18' 47"+  00:04:51 =39,415  km/h

70  Willem Van Eynde  Lotto-Super Club04h 18' 47"+  00:04:51 =39,415  km/h

71  Beat Breu  Weinmann-La Suisse-S.M.M. Uster04h 18' 47"+  00:04:51 =39,415  km/h

72  Steve Bauer  7 Eleven-Hoonved04h 18' 47"+  00:04:51 =39,415  km/h

73  Patrick Verschueren  Lotto-Super Club04h 18' 47"+  00:04:51 =39,415  km/h

74  Christian Chaubet  Toshiba04h 18' 47"+  00:04:51 =39,415  km/h

75  Jean-Claude Bagot  R.M.O.-Mavic-Liberia04h 18' 47"+  00:04:51 =39,415  km/h

76  Bruno Cenghialta  Ariostea04h 18' 47"+  00:04:51 =39,415  km/h

77  Roberto Conti  Ariostea04h 18' 47"+  00:04:51 =39,415  km/h

78  Juan Castillo  Ryalcao-Postobon04h 18' 47"+  00:04:51 =39,415  km/h

79  Piotr Ugrumov  Alfa Lum04h 18' 47"+  00:04:51 =39,415  km/h

80  Michel Dernies  Weinmann-La Suisse-S.M.M. Uster04h 18' 47"+  00:04:51 =39,415  km/h

81  Michel Vermote  R.M.O.-Mavic-Liberia04h 18' 47"+  00:04:51 =39,415  km/h

82  Nestor Mora  Kelme-Ibexpress04h 18' 47"+  00:04:51 =39,415  km/h

83  Álvaro Mejía  Ryalcao-Postobon04h 18' 47"+  00:04:51 =39,415  km/h

84  José Rodriguez  Seur04h 18' 47"+  00:04:51 =39,415  km/h

85  Abelardo Rondón  Banesto04h 18' 47"+  00:04:51 =39,415  km/h

86  Roberto Gusmeroli  Chateau d'Ax04h 18' 47"+  00:04:51 =39,415  km/h

87  Guy Nulens  Panasonic-Sportlife04h 18' 47"+  00:04:51 =39,415  km/h

88  Jerôme Simon  Z04h 18' 47"+  00:04:51 =39,415  km/h

89  Jesus Rodriguez Magro  Banesto04h 18' 47"+  00:04:51 =39,415  km/h

90  Pablo Moreno  Seur04h 18' 47"+  00:04:51 =39,415  km/h

91  Marc Sergeant  Panasonic-Sportlife04h 18' 47"+  00:04:51 =39,415  km/h

92  Nelson Rodríguez  Kelme-Ibexpress04h 18' 47"+  00:04:51 =39,415  km/h

93  Frans Maassen  Buckler04h 18' 47"+  00:04:51 =39,415  km/h

94  Steven Rooks  Panasonic-Sportlife04h 18' 47"+  00:04:51 =39,415  km/h

95  Niki Rüttimann  Helvetia-La Suisse04h 18' 47"+  00:04:51 =39,415  km/h

96  Andrew Bishop  7 Eleven-Hoonved04h 18' 47"+  00:04:51 =39,415  km/h

97  Patrick Robeet  Weinmann-La Suisse-S.M.M. Uster04h 18' 47"+  00:04:51 =39,415  km/h

98  Jean-Claude Leclercq  Helvetia-La Suisse04h 18' 47"+  00:04:51 =39,415  km/h

99  Dominique Arnaud  Banesto04h 18' 47"+  00:04:51 =39,415  km/h

100  Andreas Kappes  Toshiba04h 18' 47"+  00:04:51 =39,415  km/h

101  Fabio Parra  Kelme-Ibexpress04h 18' 47"+  00:04:51 =39,415  km/h

102  Pascal Lance  Toshiba04h 18' 47"+  00:04:51 =39,415  km/h

103  Tony Rominger  Chateau d'Ax04h 18' 47"+  00:04:51 =39,415  km/h

104  Patrick Tolhoek  Buckler04h 18' 47"+  00:04:51 =39,415  km/h

105  Antonio Diaz  Kelme-Ibexpress04h 18' 47"+  00:04:51 =39,415  km/h

106  Laurent Pillon  Histor-Sigma04h 18' 47"+  00:04:51 =39,415  km/h

107  Erich Mächler  Carrera Jeans-Vagabond04h 18' 47"+  00:04:51 =39,415  km/h

108  Acacio da Silva  Carrera Jeans-Vagabond04h 18' 47"+  00:04:51 =39,415  km/h

109  Jan Schur  Chateau d'Ax04h 18' 47"+  00:04:51 =39,415  km/h

110  Gerardo Moncada  Ryalcao-Postobon04h 18' 47"+  00:04:51 =39,415  km/h

111  Alberto Volpi  Chateau d'Ax04h 18' 47"+  00:04:51 =39,415  km/h

112  Philippe Louviot  Toshiba04h 18' 47"+  00:04:51 =39,415  km/h

113  Anselmo Fuerte  O.N.C.E.04h 18' 47"+  00:04:51 =39,415  km/h

114  Roland Le Clerc  Toshiba04h 18' 47"+  00:04:51 =39,415  km/h

115  Melchor Mauri  O.N.C.E.04h 18' 47"+  00:04:51 =39,415  km/h

116  Maarten Ducrot  TVM04h 18' 47"+  00:04:51 =39,415  km/h

117  Olaf Ludwig  Panasonic-Sportlife04h 18' 47"+  00:04:51 =39,415  km/h

118  Adriano Baffi  Ariostea04h 18' 47"+  00:04:51 =39,415  km/h

119  Mauro Gianetti  Helvetia-La Suisse04h 18' 47"+  00:04:51 =39,415  km/h

120  Giancarlo Perini  Carrera Jeans-Vagabond04h 18' 47"+  00:04:51 =39,415  km/h

121  Mauro-Antonio Santaromita  Chateau d'Ax04h 18' 47"+  00:04:51 =39,415  km/h

122  Gilbert Duclos-Lassalle  Z04h 19' 28"+  00:05:32 =39,311  km/h

123  Juan Martinez Oliver  Banesto04h 19' 28"+  00:05:32 =39,311  km/h

124  Carlos Jaramillo  Ryalcao-Postobon04h 19' 28"+  00:05:32 =39,311  km/h

125  Adrie Van Der Poel  Weinmann-La Suisse-S.M.M. Uster04h 20' 36"+  00:06:40 =39,140  km/h

126  Henri Manders  Helvetia-La Suisse04h 20' 36"+  00:06:40 =39,140  km/h

127  José Ángel Sarrapio  Kelme-Ibexpress04h 20' 36"+  00:06:40 =39,140  km/h

128  Vasily Zhdanov  Alfa Lum04h 20' 36"+  00:06:40 =39,140  km/h

129  Javier Lukin  Banesto04h 20' 36"+  00:06:40 =39,140  km/h

130  Maximilian Sciandri  Carrera Jeans-Vagabond04h 20' 36"+  00:06:40 =39,140  km/h

131  Jan Siemons  TVM04h 20' 36"+  00:06:40 =39,140  km/h

132  Jos Van Aert  PDM-Concorde04h 20' 36"+  00:06:40 =39,140  km/h

133  Frédéric Brun  R.M.O.-Mavic-Liberia04h 20' 36"+  00:06:40 =39,140  km/h

134  Giovanni Fidanza  Chateau d'Ax04h 20' 36"+  00:06:40 =39,140  km/h

135  Thomas Wegmüller  Weinmann-La Suisse-S.M.M. Uster04h 20' 36"+  00:06:40 =39,140  km/h

136  Rodolfo Massi  Ariostea04h 20' 36"+  00:06:40 =39,140  km/h

137  Carlo Bomans  Weinmann-La Suisse-S.M.M. Uster04h 20' 36"+  00:06:40 =39,140  km/h

138  Toine  Poels  Buckler04h 20' 36"+  00:06:40 =39,140  km/h

139  Jos Haex  Lotto-Super Club04h 20' 36"+  00:06:40 =39,140  km/h

140  Sean Yates  7 Eleven-Hoonved04h 20' 36"+  00:06:40 =39,140  km/h

141  Jelle Nijdam  Buckler04h 20' 36"+  00:06:40 =39,140  km/h

142  Eric Van Lancker  Panasonic-Sportlife04h 20' 36"+  00:06:40 =39,140  km/h

143  Norman Alvis  7 Eleven-Hoonved04h 20' 36"+  00:06:40 =39,140  km/h

144  Jean-Paul van Poppel  Panasonic-Sportlife04h 20' 36"+  00:06:40 =39,140  km/h

145  Jan Goessens  Weinmann-La Suisse-S.M.M. Uster04h 20' 36"+  00:06:40 =39,140  km/h

146  Hendrik Redant  Lotto-Super Club04h 20' 36"+  00:06:40 =39,140  km/h

147  Kurt Steinmann  Weinmann-La Suisse-S.M.M. Uster04h 20' 36"+  00:06:40 =39,140  km/h

148  Ron Kiefel  7 Eleven-Hoonved04h 20' 36"+  00:06:40 =39,140  km/h

149  Davis Phinney  7 Eleven-Hoonved04h 20' 36"+  00:06:40 =39,140  km/h

150  Thierry Marie  Castorama-Raleigh04h 21' 05"+  00:07:09 =39,068  km/h

151  Martin Schalkers  TVM04h 22' 08"+  00:08:12 =38,911  km/h

152  Jesús Rosado  Kelme-Ibexpress04h 22' 08"+  00:08:12 =38,911  km/h

153  Laurent Biondi  Histor-Sigma04h 22' 08"+  00:08:12 =38,911  km/h

154  Gerrit Solleveld  Buckler04h 22' 08"+  00:08:12 =38,911  km/h

155  Gert Jakobs  PDM-Concorde04h 22' 08"+  00:08:12 =38,911  km/h

156  Antonio Espejo  Kelme-Ibexpress04h 22' 54"+  00:08:58 =38,798  km/h

157  Nikolai Golovatenko  Alfa Lum04h 22' 54"+  00:08:58 =38,798  km/h

158  Bob Roll  7 Eleven-Hoonved04h 22' 54"+  00:08:58 =38,798  km/h

159  Denis Roux  Toshiba04h 33' 18"+  00:19:22 =37,322  km/h

160  François Lemarchand  Z04h 38' 59"+  00:25:03 =36,561  km/h

161  Guido Winterberg  Helvetia-La Suisse04h 38' 59"+  00:25:03 =36,561  km/h


Withdrawls: 3
 RiderTeamReason
214   Ivan Ivanov Alfa LumDid not start
7   Robert Millar ZDid not finish
216   Asiat Saitov Alfa LumDid not finish
Todays birthdays.

1896 • Andre Coutte
1907 • Eduardo Molinar
1911 • Gabriel Dubois
1932 • Serge David
1936 • Alberto Assirelli
1947 • Roberto Sorlini
1951 • Valerio Lualdi
1952 • Paulino Martinez
1955 • Erich Jagsch
1969 • Ermanno Brignoli
1971 • Fabrice Gougot
1975 • Steve De Wolf
1984 • Matti Breschel
1990 • Maurits Lammertink
1996 • Fabio Jakobsen
2002 • Ramses Debruyne

 

Optimized for Chrome - Edge
and Opera browsers.